Regional Weather Roundup
Issued by NWS Upton, NY

Current Version | Previous Version | Text Only | Print | Product List | Glossary On
Versions: 1 2 3 4 5 6 7 8 9 10 11 12 13 14 15 16 17 18 19 20 21 22 23 24 25 26 27
000
ASUS41 KOKX 262308
RWROKX

REGIONAL WEATHER ROUNDUP
NATIONAL WEATHER SERVICE NEW YORK NY
700 PM EDT SUN MAR 26 2017

NOTE: "FAIR" INDICATES FEW OR NO CLOUDS BELOW 12,000 FEET WITH NO
SIGNIFICANT WEATHER AND/OR OBSTRUCTIONS TO VISIBILITY.

NYZ071-072-176-178-NJZ106-104-270000-
NEW YORK CITY METRO AREA

CITY           SKY/WX    TMP DP  RH WIND       PRES   REMARKS
Central Park   CLOUDY    40  35  83 VRB6      30.39F
Wall St Helipt CLOUDY    43  36  75 NE14      30.38F
LaGuardia APRT CLOUDY    43  35  73 NE10      30.38F
Kennedy INTL   CLOUDY    41  38  89 E13       30.39S FOG
Breezy Point     N/A     39 N/A N/A E15G21      N/A  WCI  31
Newark/Liberty CLOUDY    42  35  76 E7        30.37F
Teterboro      CLOUDY    41  35  79 E8        30.37F
$$

NYZ177-179-078>081-270000-
LONG ISLAND NEW YORK

CITY           SKY/WX    TMP DP  RH WIND       PRES   REMARKS
Jones Beach      N/A     39 N/A N/A E16G25      N/A  WCI  30
Matinecock PT  NOT AVBL
Farmingdale    CLOUDY    40  37  89 E13       30.39S FOG     WCI  32
MacArthur/ISP  CLOUDY    39  37  92 E16       30.38F FOG     WCI  30
Shirley        CLOUDY    39  35  86 VRB6      30.40F WCI  35
Westhampton    CLOUDY    40  34  79 E10       30.42R WCI  33
East Hampton   CLOUDY    38  33  82 E12G20    30.40S WCI  31
Montauk          N/A     39  34  82 E8G17     30.43S WCI  33
$$

NYZ052-065-067-270000-
HUDSON VALLEY

CITY           SKY/WX    TMP DP  RH WIND       PRES   REMARKS
White Plains   CLOUDY    38  34  85 E9        30.36F WCI  31
Newburgh       CLOUDY    39  32  75 SE8       30.37F WCI  34
Montgomery     CLOUDY    39  30  70 SE5       30.36S
Poughkeepsie   CLOUDY    37  31  78 E5        30.37F WCI  33
Albany         CLOUDY    37  30  75 SE5       30.37F WCI  33
$$

NJZ001-105-106-008-010-013-015-019>022-104-270000-
NEW JERSEY

CITY           SKY/WX    TMP DP  RH WIND       PRES   REMARKS
Newark/Liberty CLOUDY    42  35  76 E7        30.37F
Teterboro      CLOUDY    41  35  79 E8        30.37F
Caldwell       CLOUDY    40  33  76 E7        30.37F
Somerville     CLOUDY    41  35  79 E7        30.35S
Linden         CLOUDY    41  35  79 SE12      30.38S
Sussex         CLOUDY    39  32  76 E3        30.35S
Andover          N/A     38  31  76 VRB3      30.34F
Trenton        CLOUDY    40  39  97 E14G20    30.34S FOG     WCI  32
Millville      CLOUDY    44  42  93 E14       30.29F
Atlantic City  CLOUDY    43  40  89 NE14      30.31F FOG
Wrightstown    CLOUDY    40  39  94 NE10      30.32S FOG     WCI  34
Toms River     LGT RAIN  40  39  97 E10G16    30.36S FOG     WCI  33
Belmar         LGT RAIN  39  38  96 E9        30.36F FOG     WCI  33
$$

PAZ047>061-062-071-270000-
EASTERN PENNSYLVANIA

CITY           SKY/WX    TMP DP  RH WIND       PRES   REMARKS
Philadelphia   CLOUDY    43  40  89 E12       30.33S FOG
Allentown      CLOUDY    41  35  79 E14       30.32F
Scranton       CLOUDY    39  35  86 E7        30.26S WCI  34
$$

CTZ002-004>006-009-010-012-RIZ004-006-007-MAZ004-011-015-270000-
SOUTHERN NEW ENGLAND
 IN CT

CITY           SKY/WX    TMP DP  RH WIND       PRES   REMARKS
Bradley INTL   CLOUDY    39  32  76 CALM      30.41F
Hartford       CLOUDY    39  33  79 CALM      30.42S
Danbury        CLOUDY    38  32  79 E8        30.39F WCI  32
Wtrbury/Oxford CLOUDY    37  28  70 SE7       30.39F WCI  32
Bridgeport     CLOUDY    40  35  83 E15       30.40F WCI  32
Meriden        CLOUDY    40  30  67 SE3       30.42S
New Haven      CLOUDY    39  33  79 E10G18    30.42S WCI  32
Chester        NOT AVBL
Groton         CLOUDY    38  31  76 E10       30.43S WCI  31
Wilimantic     LGT RAIN  41  30  65 E3        30.42F

 IN RI

CITY           SKY/WX    TMP DP  RH WIND       PRES   REMARKS
Providence     CLOUDY    39  26  59 E7        30.45F WCI  34
Block Island   CLOUDY    37  32  82 E14G23    30.42F WCI  28
Westerly       LGT RAIN  39  32  76 E12       30.43F WCI  32
 IN MA

CITY           SKY/WX    TMP DP  RH WIND       PRES   REMARKS
Boston         CLOUDY    37  29  72 E10       30.48S WCI  30
Worcester      CLOUDY    34  24  67 E6        30.40F WCI  29
Westfield      CLOUDY    37  32  82 N3        30.41S
Provincetown   CLOUDY    38  28  67 SE9       30.49S WCI  31
Nantucket      CLOUDY    38  27  64 E12       30.45F WCI  30
$$

ANZ330-335-338-340-345-350-353-355-270000-
COASTAL MARINE OBSERVATIONS


STATION/POSITION TIME  SKY/WX   TEMP    WIND        PRES    VSBY  WAVE
                                AIR SEA DIR/SP/G                  HT/PER
                 (UTC)          (F)     (DEG/KT/KT) (MB)    (MI)  (FT/S)
NY HARB ENTRANCE 2250            40 42   70/ 17/ 21 1027.9          5/ 6
20 S FIRE ISLAND 2250            40 40   80/ 19/ 21 1027.5          6/ 7
GREAT SOUTH BAY  NOT AVBL
23 SSW MONTAUK P 2150            40 43              1029.1          6/ 5
15 E BARNEGAT LI 2230               43                N/A           7/ 7
HUDSON CANYON    2150            44 45   70/ 16/ 17 1026.7          7/ 7
KINGS POINT      2230            40 39              1028.7
EXECUTION ROCKS  NOT AVBL
CENTRAL LI SOUND 2215            39     100/ 16/ 17   N/A           3/ 4
EASTERN LI SOUND NOT AVBL
ROBBINS REEF     2230            41     110/ 15/ 17 1028.8
$$


>>>>>>>>>>>>>>>>>>>>>>>>>>>> KEY <<<<<<<<<<<<<<<<<<<<<<<<<<<
>                                                          <
>     SKY/WX - Sky Condition/Present Weather               <
>     TMP    - Temperature in Fahrenheit                   <
>     DP     - Dew Point in Fahrenheit                     <
>     RH     - Relative Humidity in Percent                <
>     WIND   - Direction (from) and Speed in MPH           <
>     PRES   - Mean Sea Level Pressure (inches of Hg)      <
>     WCI    - Wind Chill Index                            <
>     VSB    - VISIBILITY IN MILES                         <
>     HX     - HEAT INDEX                                  <
>     TC     - TEMPERATURE IN CELSIUS                      <
>     VRB    - VARIABLE WIND DIRECTION                     <
>                                                          <
>>>>>>>>>>>>>>>>>>>>>>>>>>>> KEY <<<<<<<<<<<<<<<<<<<<<<<<<<<




USA.gov is the U.S. government's official web portal to all federal, state and local government web resources and services.